[[{"header":{"parameterUnit":"m.s-1","parameterCategory":1,"la1":30.2991,"la2":30.254,"lo1":-89.0895,"lo2":-89.0444,"dy":0.0017,"dx":0.0017,"nx":28,"ny":28,"refTime":"2024-05-05T03:00:00:Z","depth":0,"parameterNumber":2,"parameterNumberName":"U-component_of_WINDS"},"data":[0,0,0,0,0,0,0,0,0,0,0,0,0,0,0,0,0,0,0,0,0,0,0,0,0,0,0,0,0,0,0,0,0,0,0,0,0,0,0,0,0,0,0,0,0,0,0,0,0,0,0,0,0,0,0,0,0,0,-0.6705,-0.6705,0,-0.6666,-0.6666,-0.6665,-0.661,-0.6609,-0.6608,-0.6607,-0.6567,-0.6566,-0.6566,0,0,0,0,0,0,0,0,0,0,0,0,0,-0.6731,-0.6731,-0.6705,-0.6705,-0.6704,-0.6666,-0.6666,-0.6665,-0.661,-0.6609,-0.6608,-0.6607,-0.6567,-0.6566,-0.6566,0,0,0,0,0,0,0,0,0,0,0,0,0,-0.6709,-0.6731,-0.6705,-0.6672,-0.6669,-0.6666,-0.6666,-0.6665,-0.661,-0.6609,-0.6607,-0.6606,-0.6567,-0.6566,-0.6566,-0.6593,0,0,-0.6565,-0.6565,0,0,0,0,0,0,0,0,-0.671,-0.6708,-0.6677,-0.6674,-0.667,-0.6641,-0.666,-0.6641,-0.6611,-0.6632,-0.6607,-0.6605,-0.6593,-0.659,-0.6586,-0.6591,-0.6589,-0.6565,-0.6565,-0.6565,-0.6565,0,0,0,0,0,0,0,-0.6712,-0.6709,-0.669,-0.6677,-0.6673,-0.6659,-0.6654,-0.6656,-0.6621,-0.663,-0.6626,-0.6622,-0.659,-0.6586,-0.6585,-0.6589,-0.6565,-0.6565,-0.6565,-0.6565,-0.6614,-0.6616,0,0,0,0,0,0,-0.6718,-0.6711,-0.6691,-0.6688,-0.6687,-0.666,-0.6654,-0.6652,-0.6621,-0.6615,-0.6624,-0.662,-0.6588,-0.6585,-0.6583,-0.6613,-0.6565,-0.6565,-0.6565,-0.6613,-0.6615,-0.6616,0,0,0,0,0,0,-0.6719,-0.6717,-0.6692,-0.6698,-0.6694,-0.6661,-0.6659,-0.6652,-0.6648,-0.6616,-0.6609,-0.6626,-0.6586,-0.6583,-0.6591,-0.661,-0.6565,-0.6564,-0.6611,-0.6613,-0.6615,-0.6672,0,0,0,0,0,0,-0.672,-0.6717,-0.6727,-0.6699,-0.6694,-0.6702,-0.666,-0.6652,-0.6648,-0.6643,-0.6616,-0.661,-0.6585,-0.6592,-0.6591,-0.6609,-0.6564,-0.6609,-0.6612,-0.6615,-0.6668,-0.6676,-0.6683,0,0,0,0,0,-0.6721,-0.6745,-0.6728,-0.6726,-0.6706,-0.6703,-0.67,-0.667,-0.665,-0.6659,-0.6639,-0.6611,-0.6608,-0.6593,-0.6591,-0.661,-0.6608,-0.6611,-0.6615,-0.6665,-0.6675,-0.6682,0,0,0,0,0,0,-0.6776,-0.674,-0.6722,-0.6737,-0.6723,-0.6693,-0.6705,-0.6681,-0.6673,-0.6668,-0.6632,-0.6626,-0.6639,-0.6625,-0.6608,-0.6635,-0.6604,-0.6607,-0.6643,-0.6652,-0.6659,-0.6662,-0.6564,0,0,0,0,0,-0.679,-0.679,-0.6759,-0.6776,-0.677,-0.6739,-0.6736,-0.6715,-0.6699,-0.6693,-0.6673,-0.6658,-0.6654,-0.6652,-0.6646,-0.6666,-0.666,-0.6678,-0.6685,-0.6691,-0.6694,-0.6704,-0.6712,-0.6627,-0.6627,-0.6627,0,0,-0.6819,-0.6799,-0.6802,-0.6786,-0.6773,-0.6775,-0.6734,-0.6737,-0.6738,-0.6693,-0.6699,-0.6684,-0.6666,-0.668,-0.6685,-0.6669,-0.6716,-0.6695,-0.6701,-0.67,-0.6708,-0.6717,-0.6724,-0.663,-0.6629,-0.6629,0,0,-0.6872,-0.6857,-0.6869,-0.6857,-0.6838,-0.6817,-0.682,-0.6794,-0.6782,-0.6788,-0.6755,-0.6755,-0.6748,-0.6736,-0.673,-0.6779,-0.6754,-0.6778,-0.6815,-0.6825,-0.6832,-0.6838,-0.6855,-0.6862,-0.6781,-0.6781,-0.6782,0,-0.691,-0.6911,-0.6879,-0.6884,-0.6878,-0.6838,-0.685,-0.684,-0.682,-0.6817,-0.6799,-0.6791,-0.6775,-0.6786,-0.6798,-0.6794,-0.6796,-0.6781,-0.6833,-0.6839,-0.6844,-0.686,-0.6867,-0.6785,-0.6784,-0.6784,-0.6784,0,-0.6958,-0.696,-0.6972,-0.6954,-0.695,-0.6958,-0.6928,-0.6927,-0.6906,-0.6887,-0.6894,-0.6874,-0.6864,-0.6865,-0.6844,-0.6873,-0.6863,-0.684,-0.6809,-0.6856,-0.6871,-0.6877,-0.6789,-0.6788,-0.6787,-0.6786,0,0,-0.7045,-0.701,-0.7015,-0.7006,-0.6982,-0.6983,-0.699,-0.698,-0.698,-0.6968,-0.6973,-0.6969,-0.6947,-0.6939,-0.6917,-0.6926,-0.6966,-0.6901,-0.69,-0.6914,-0.6997,-0.7015,-0.7023,-0.6949,-0.695,-0.6951,-0.6999,0,-0.7094,-0.7104,-0.7076,-0.7093,-0.7094,-0.7056,-0.7062,-0.7048,-0.7031,-0.7029,-0.7009,-0.7007,-0.6978,-0.6973,-0.698,-0.696,-0.6983,-0.6956,-0.6954,-0.6954,-0.696,-0.7031,-0.705,-0.7096,-0.7005,-0.7006,-0.7006,0,-0.7152,-0.7143,-0.7161,-0.7136,-0.7135,-0.7141,-0.713,-0.7129,-0.7112,-0.7099,-0.7091,-0.7065,-0.707,-0.704,-0.7046,-0.7029,-0.7026,-0.7016,-0.7017,-0.7016,-0.6983,-0.7032,-0.711,-0.7117,-0.7015,-0.7014,-0.7014,0,-0.7214,-0.7206,-0.7216,-0.721,-0.7181,-0.7186,-0.7175,-0.7156,-0.7153,-0.7143,-0.714,-0.7131,-0.7126,-0.712,-0.7092,-0.7073,-0.7102,-0.707,-0.7091,-0.7092,-0.7099,-0.7099,-0.7178,-0.7097,-0.7097,-0.7097,-0.7097,0,-0.7271,-0.7284,-0.7243,-0.7249,-0.7262,-0.7229,-0.7243,-0.7227,-0.7212,-0.7214,-0.718,-0.7183,-0.7146,-0.7145,-0.7123,-0.7132,-0.713,-0.7119,-0.7113,-0.7122,-0.7124,-0.712,-0.7117,-0.7099,-0.7098,-0.7098,-0.7098,0,-0.7343,-0.7316,-0.7324,-0.7297,-0.729,-0.7301,-0.7277,-0.7281,-0.7262,-0.7265,-0.7264,-0.7234,-0.723,-0.7202,-0.7192,-0.7177,-0.7195,-0.7182,-0.7201,-0.7197,-0.722,-0.7219,-0.73,-0.7309,-0.7222,-0.7223,-0.7224,0,-0.7381,-0.739,-0.7364,-0.7363,-0.7353,-0.7352,-0.7348,-0.7316,-0.7314,-0.7295,-0.7302,-0.7296,-0.729,-0.7286,-0.7263,-0.7256,-0.7243,-0.7272,-0.7242,-0.7251,-0.7244,-0.7244,-0.7245,-0.7279,-0.728,-0.7281,-0.7281,0,-0.7453,-0.7439,-0.7435,-0.7427,-0.7423,-0.7415,-0.7404,-0.7405,-0.737,-0.7369,-0.7365,-0.736,-0.7351,-0.7346,-0.7334,-0.7321,-0.7296,-0.7291,-0.7296,-0.7306,-0.7316,-0.7311,-0.7219,-0.729,-0.7289,-0.7288,-0.7288,-0.7287,-0.7509,-0.7515,-0.7498,-0.7495,-0.7483,-0.7474,-0.7477,-0.7458,-0.7455,-0.7445,-0.7426,-0.7426,-0.7409,-0.7391,-0.7381,-0.738,-0.7364,-0.7371,-0.7373,-0.7375,-0.738,-0.7316,-0.7377,-0.7377,-0.7377,-0.7376,-0.7376,0,-0.758,-0.7567,-0.7564,-0.755,-0.7548,-0.7524,-0.7511,-0.7511,-0.7511,-0.7497,-0.7492,-0.7488,-0.7483,-0.7459,-0.7451,-0.7455,-0.7443,-0.7454,-0.7454,-0.7451,-0.7394,-0.7391,-0.7464,-0.7464,-0.7464,-0.7464,-0.7464,-0.7464,-0.7616,-0.7625,-0.761,-0.7613,-0.76,-0.7599,-0.7594,-0.7586,-0.7575,-0.7573,-0.7568,-0.7553,-0.7535,-0.7526,-0.752,-0.7513,-0.7512,-0.7527,-0.7517,-0.7464,-0.7455,-0.7447,-0.7444,-0.7527,-0.7527,-0.7574,-0.7575,-0.7575]},{"header":{"parameterUnit":"m.s-1","parameterCategory":1,"la1":30.2991,"la2":30.254,"lo1":-89.0895,"lo2":-89.0444,"dy":0.0017,"dx":0.0017,"nx":28,"ny":28,"refTime":"2024-05-05T03:00:00:Z","depth":0,"parameterNumber":3,"parameterNumberName":"V-component_of_WINDS"},"data":[0,0,0,0,0,0,0,0,0,0,0,0,0,0,0,0,0,0,0,0,0,0,0,0,0,0,0,0,0,0,0,0,0,0,0,0,0,0,0,0,0,0,0,0,0,0,0,0,0,0,0,0,0,0,0,0,0,0,1.2947,1.2947,0,1.2933,1.2933,1.2933,1.2927,1.2927,1.2927,1.2927,1.2913,1.2912,1.2912,0,0,0,0,0,0,0,0,0,0,0,0,0,1.2967,1.2967,1.2947,1.2947,1.2946,1.2933,1.2933,1.2933,1.2927,1.2927,1.2927,1.2927,1.2913,1.2912,1.2912,0,0,0,0,0,0,0,0,0,0,0,0,0,1.2956,1.2966,1.2947,1.2942,1.2942,1.2933,1.2933,1.2933,1.2927,1.2927,1.2927,1.2927,1.2913,1.2912,1.2912,1.2907,0,0,1.291,1.291,0,0,0,0,0,0,0,0,1.2957,1.2955,1.2943,1.2942,1.2942,1.2932,1.2935,1.2924,1.2927,1.2933,1.2927,1.2927,1.2919,1.2918,1.2915,1.2906,1.2906,1.291,1.2909,1.2909,1.2909,0,0,0,0,0,0,0,1.2958,1.2956,1.2941,1.2943,1.2942,1.294,1.2939,1.2933,1.2926,1.2932,1.2932,1.293,1.2919,1.2916,1.2915,1.2905,1.291,1.2909,1.2909,1.2909,1.2892,1.2891,0,0,0,0,0,0,1.2959,1.2957,1.2942,1.2941,1.295,1.294,1.2938,1.2935,1.2926,1.2924,1.293,1.293,1.2917,1.2916,1.2914,1.2908,1.2909,1.2909,1.2908,1.2892,1.2891,1.2891,0,0,0,0,0,0,1.296,1.2958,1.2942,1.2949,1.2947,1.294,1.2936,1.2935,1.2932,1.2924,1.2923,1.2929,1.2917,1.2915,1.2909,1.2907,1.2908,1.2908,1.2892,1.2892,1.2891,1.2895,0,0,0,0,0,0,1.296,1.2958,1.2956,1.2949,1.2946,1.2937,1.2936,1.2935,1.2931,1.2931,1.2923,1.2921,1.2917,1.291,1.2908,1.2906,1.2907,1.2892,1.2892,1.2891,1.2895,1.2895,1.2895,0,0,0,0,0,1.2961,1.2958,1.2956,1.2955,1.2944,1.2937,1.2936,1.2931,1.2931,1.2929,1.2924,1.2921,1.2908,1.2909,1.2907,1.2905,1.2892,1.2892,1.2891,1.2895,1.2895,1.2895,0,0,0,0,0,0,1.2965,1.2957,1.2955,1.2949,1.2944,1.2936,1.2934,1.2931,1.2926,1.2926,1.292,1.2918,1.2912,1.2908,1.291,1.29,1.29,1.2899,1.2903,1.2903,1.2903,1.2904,1.2907,0,0,0,0,0,1.2966,1.2961,1.2954,1.2949,1.2947,1.2941,1.2938,1.2935,1.2929,1.2926,1.2921,1.2915,1.291,1.2906,1.2901,1.2895,1.2893,1.2892,1.2892,1.2892,1.2892,1.2888,1.2888,1.2891,1.2891,1.2891,0,0,1.2966,1.2961,1.2958,1.295,1.2946,1.2941,1.2939,1.2934,1.293,1.2926,1.2919,1.2915,1.2908,1.2902,1.2899,1.2899,1.2891,1.2892,1.2892,1.2892,1.2888,1.2888,1.2887,1.2891,1.2891,1.2891,0,0,1.2965,1.296,1.2956,1.2952,1.2945,1.2941,1.294,1.2933,1.293,1.2924,1.292,1.2915,1.2906,1.2901,1.2897,1.2894,1.2891,1.2892,1.2893,1.2889,1.2889,1.2889,1.2887,1.2887,1.2892,1.2892,1.2892,0,1.2966,1.2959,1.2954,1.295,1.2946,1.2942,1.2937,1.2933,1.2925,1.2923,1.2922,1.291,1.2905,1.2898,1.2897,1.2894,1.2893,1.2893,1.2889,1.2889,1.2889,1.2887,1.2887,1.2892,1.2892,1.2892,1.2892,0,1.2961,1.2956,1.2954,1.2946,1.2942,1.2937,1.2932,1.2928,1.2926,1.2921,1.2915,1.2909,1.2902,1.29,1.2897,1.2892,1.2892,1.2891,1.289,1.2889,1.2887,1.2887,1.2892,1.2892,1.2892,1.2892,0,0,1.2962,1.2952,1.2951,1.2947,1.294,1.2936,1.2931,1.2924,1.2921,1.2916,1.2911,1.2903,1.2902,1.2898,1.2894,1.2891,1.2889,1.289,1.289,1.289,1.2883,1.2884,1.2883,1.2887,1.2887,1.2887,1.2883,0,1.2959,1.2951,1.2946,1.2939,1.2935,1.2931,1.2926,1.2921,1.2917,1.2912,1.2908,1.2902,1.2901,1.2898,1.2895,1.289,1.2887,1.289,1.2883,1.2883,1.2884,1.2882,1.2883,1.288,1.2883,1.2883,1.2883,0,1.2955,1.295,1.2943,1.2935,1.2933,1.2929,1.2923,1.2919,1.2912,1.291,1.2905,1.2902,1.2896,1.2896,1.2888,1.289,1.2887,1.2884,1.2883,1.2882,1.2882,1.2881,1.2879,1.2879,1.2882,1.2882,1.2882,0,1.2956,1.2947,1.2942,1.2939,1.293,1.2928,1.2924,1.2918,1.2914,1.2909,1.2906,1.29,1.2896,1.2891,1.2886,1.2887,1.2879,1.2878,1.2876,1.2876,1.2874,1.2874,1.2871,1.2872,1.2872,1.2872,1.2872,0,1.2954,1.2949,1.2942,1.2939,1.2934,1.2928,1.2923,1.2919,1.2914,1.2909,1.2905,1.2901,1.2895,1.289,1.2886,1.2879,1.2878,1.2875,1.2874,1.2876,1.2876,1.2873,1.2873,1.2872,1.2872,1.2872,1.2872,0,1.2954,1.2949,1.2943,1.2935,1.2933,1.293,1.2923,1.292,1.2915,1.291,1.2908,1.2901,1.2895,1.289,1.2881,1.2879,1.2872,1.2871,1.2874,1.2874,1.2872,1.2872,1.2867,1.2866,1.2868,1.2868,1.2868,0,1.2953,1.2949,1.2941,1.2938,1.2935,1.293,1.2926,1.2921,1.2917,1.2909,1.2907,1.29,1.2895,1.2885,1.2879,1.2873,1.2871,1.287,1.287,1.2872,1.2871,1.2871,1.2871,1.287,1.287,1.287,1.287,0,1.2951,1.2948,1.2943,1.2937,1.2933,1.2928,1.2923,1.292,1.2914,1.291,1.2904,1.2899,1.2891,1.2885,1.2877,1.2873,1.287,1.287,1.2869,1.287,1.2872,1.2871,1.2874,1.287,1.287,1.287,1.287,1.287,1.295,1.2947,1.2941,1.2935,1.2931,1.2926,1.2922,1.2918,1.2912,1.2905,1.2902,1.2896,1.2889,1.288,1.2876,1.287,1.287,1.2869,1.2868,1.2868,1.2868,1.2873,1.2869,1.2869,1.2869,1.2869,1.2869,0,1.2948,1.2944,1.2939,1.2932,1.2927,1.2925,1.2919,1.2915,1.291,1.2904,1.2899,1.2892,1.2885,1.2879,1.2872,1.2869,1.2868,1.2868,1.2868,1.2867,1.2869,1.287,1.2869,1.2869,1.2869,1.2869,1.2869,1.2869,1.2946,1.294,1.2937,1.2929,1.2925,1.2919,1.2916,1.2911,1.2907,1.2899,1.2893,1.289,1.2884,1.2876,1.287,1.2869,1.2866,1.2867,1.2865,1.2867,1.2867,1.2867,1.2868,1.2866,1.2866,1.2863,1.2863,1.2863]}]]